Rensselaer, IN

2:27 AM CST on February 12, 2016 (GMT -0600)
Jasper County

Weather History for KRZL - October, 2012

Change the Weather History Date:

Monday, October 22, 2012

  Actual Average (KVPZ) Record (KVPZ)
Temperature  
Mean Temperature 60 °F 51 °F  
Max Temperature 71 °F 61 °F 71 °F (2000)
Min Temperature 50 °F 41 °F 25 °F (2013)
Degree Days  
Heating Degree Days 4 15  
Month to date heating degree days 257  
Since 1 July heating degree days 387  
Cooling Degree Days 0 0  
Month to date cooling degree days 11  
Year to date cooling degree days 713  
Growing Degree Days 10 (Base 50)    
Moisture  
Dew Point 56 °F    
Average Humidity 84    
Maximum Humidity 94    
Minimum Humidity 53    
Precipitation  
Precipitation 0.00 in 0.12 in 0.79 in (2009)
Month to date precipitation 2.34  
Year to date precipitation 31.09  
Sea Level Pressure  
Sea Level Pressure 29.97 in    
Wind  
Wind Speed 6 mph (SSE)    
Max Wind Speed 17 mph    
Max Gust Speed 23 mph    
Visibility 10 miles    
Events Rain , Thunderstorm    
T = Trace of Precipitation, MM = Missing Value Source: NWS Daily Summary

Daily Weather History Graph

Daily Weather History Graph

Search for Another Location

Airport or City:

Trip Planner

Search our weather history database for the weather conditions in past years. The results will help you decide how hot, cold, wet, or windy it might be!

Date:

Astronomy

Oct. 22, 2012 Rise Set
Actual Time 7:08 AM CDT 5:57 PM CDT
Civil Twilight 6:40 AM CDT 6:25 PM CDT
Nautical Twilight 6:08 AM CDT 6:57 PM CDT
Astronomical Twilight 5:36 AM CDT 7:28 PM CDT
Moon 2:07 PM CDT (10/22) No Moon Set
Length of Visible Light 11h 44m
Length of Day
10h 48m
First Quarter, 56% of the Moon is Illuminated
Oct 22
First Quarter
Oct 29
Full
Nov 6
Last Quarter
Nov 13
New
Nov 20
First Quarter

Hourly Weather History & Observations

Time (CDT) Temp. Dew Point Humidity Pressure Visibility Wind Dir Wind Speed Gust Speed Precip Events Conditions
12:35 AM 51.8 °F 48.2 °F 88% 30.01 in 10.0 mi SE 4.6 mph - N/A   Clear
12:55 AM 53.6 °F 48.2 °F 82% 30.01 in 10.0 mi SE 4.6 mph - N/A   Clear
1:55 AM 53.6 °F 48.2 °F 82% 30.00 in 10.0 mi SE 3.5 mph - N/A   Clear
2:55 AM 51.8 °F 48.2 °F 88% 30.01 in 10.0 mi SE 4.6 mph - N/A   Clear
3:15 AM 53.6 °F 50.0 °F 88% 30.00 in 10.0 mi ESE 4.6 mph - N/A   Mostly Cloudy
3:35 AM 51.8 °F 46.4 °F 82% 30.00 in 10.0 mi SE 3.5 mph - N/A   Scattered Clouds
4:15 AM 50.0 °F 46.4 °F 87% 29.99 in 10.0 mi East 4.6 mph - N/A   Scattered Clouds
4:35 AM 50.0 °F 46.4 °F 87% 29.99 in 10.0 mi East 4.6 mph - N/A   Scattered Clouds
4:55 AM 51.8 °F 48.2 °F 88% 29.99 in 10.0 mi East 4.6 mph - N/A   Mostly Cloudy
5:15 AM 51.8 °F 50.0 °F 94% 29.99 in 10.0 mi East 4.6 mph - N/A   Overcast
5:35 AM 51.8 °F 50.0 °F 94% 29.99 in 10.0 mi East 4.6 mph - N/A   Mostly Cloudy
6:15 AM 53.6 °F 50.0 °F 88% 30.00 in 10.0 mi East 3.5 mph - N/A   Mostly Cloudy
6:35 AM 53.6 °F 50.0 °F 88% 30.00 in 10.0 mi East 3.5 mph - N/A   Mostly Cloudy
7:15 AM 53.6 °F 50.0 °F 88% 30.00 in 10.0 mi ESE 3.5 mph - N/A   Mostly Cloudy
7:35 AM 55.4 °F 51.8 °F 88% 29.99 in 10.0 mi ESE 5.8 mph - N/A   Mostly Cloudy
7:55 AM 57.2 °F 51.8 °F 82% 30.00 in 10.0 mi SE 5.8 mph - N/A   Mostly Cloudy
8:15 AM 59.0 °F 53.6 °F 82% 30.00 in 10.0 mi SE 5.8 mph - N/A   Mostly Cloudy
8:35 AM 60.8 °F 53.6 °F 77% 30.00 in 10.0 mi SSE 5.8 mph - N/A   Scattered Clouds
8:55 AM 62.6 °F 53.6 °F 72% 30.01 in 10.0 mi SSE 5.8 mph - N/A   Scattered Clouds
9:15 AM 64.4 °F 55.4 °F 73% 30.00 in 10.0 mi SSE 5.8 mph - N/A   Overcast
9:35 AM 64.4 °F 53.6 °F 68% 29.99 in 10.0 mi SSE 8.1 mph - N/A   Mostly Cloudy
9:55 AM 68.0 °F 53.6 °F 60% 29.99 in 10.0 mi South 8.1 mph - N/A   Scattered Clouds
10:15 AM 68.0 °F 53.6 °F 60% 29.99 in 10.0 mi South 9.2 mph - N/A   Clear
10:35 AM 69.8 °F 53.6 °F 56% 30.00 in 10.0 mi South 11.5 mph - N/A   Scattered Clouds
10:55 AM 71.6 °F 53.6 °F 53% 30.00 in 10.0 mi SSW 12.7 mph 18.4 mph N/A   Scattered Clouds
11:15 AM 69.8 °F 53.6 °F 56% 30.01 in 10.0 mi SSW 15.0 mph 20.7 mph N/A   Overcast
11:35 AM 69.8 °F 53.6 °F 56% 30.03 in 10.0 mi SSW 12.7 mph 19.6 mph N/A   Overcast
11:55 AM 68.0 °F 53.6 °F 60% 30.05 in 10.0 mi SW 17.3 mph 23.0 mph N/A Thunderstorm Overcast
12:15 PM 62.6 °F 59.0 °F 88% 30.03 in 7.0 mi SSW 6.9 mph - N/A Rain , Thunderstorm Thunderstorms and Rain
12:35 PM 60.8 °F 59.0 °F 94% 30.04 in 10.0 mi SSW 8.1 mph - N/A Rain , Thunderstorm Thunderstorms and Rain
12:55 PM 60.8 °F 59.0 °F 94% 30.04 in 5.0 mi SSW 8.1 mph - N/A Rain , Thunderstorm Thunderstorms and Rain
1:15 PM 60.8 °F 59.0 °F 94% 29.99 in 4.0 mi SE 10.4 mph - N/A Rain Rain
1:35 PM 60.8 °F 59.0 °F 94% 29.94 in 5.0 mi SE 16.1 mph 21.9 mph N/A Rain Rain
1:55 PM 60.8 °F 59.0 °F 94% 29.96 in 10.0 mi SSE 11.5 mph - N/A Rain Light Rain
2:15 PM 62.6 °F 60.8 °F 94% 29.95 in 10.0 mi SSE 9.2 mph - N/A   Scattered Clouds
2:35 PM 62.6 °F 60.8 °F 94% 29.95 in 10.0 mi SSE 11.5 mph 17.3 mph N/A   Clear
2:55 PM 62.6 °F 60.8 °F 94% 29.96 in 10.0 mi South 6.9 mph - N/A   Mostly Cloudy
3:15 PM 62.6 °F 60.8 °F 94% 29.95 in 10.0 mi SSE 6.9 mph - N/A Rain Rain
3:35 PM 62.6 °F 60.8 °F 94% 29.95 in 10.0 mi SE 6.9 mph - N/A Rain Light Rain
3:55 PM 64.4 °F 60.8 °F 88% 29.95 in 10.0 mi SSE 4.6 mph - N/A   Scattered Clouds
4:15 PM 64.4 °F 62.6 °F 94% 29.94 in 10.0 mi SE 6.9 mph - N/A   Scattered Clouds
4:35 PM 64.4 °F 62.6 °F 94% 29.93 in 10.0 mi SSE 10.4 mph - N/A   Mostly Cloudy
4:55 PM 64.4 °F 60.8 °F 88% 29.94 in 10.0 mi South 8.1 mph - N/A   Scattered Clouds
5:15 PM 64.4 °F 60.8 °F 88% 29.94 in 10.0 mi SSE 6.9 mph - N/A   Mostly Cloudy
5:35 PM 64.4 °F 60.8 °F 88% 29.94 in 10.0 mi South 5.8 mph - N/A   Mostly Cloudy
5:55 PM 64.4 °F 60.8 °F 88% 29.95 in 10.0 mi South 5.8 mph - N/A   Overcast
6:15 PM 64.4 °F 60.8 °F 88% 29.95 in 10.0 mi South 4.6 mph - N/A   Overcast
6:35 PM 64.4 °F 60.8 °F 88% 29.95 in 10.0 mi South 3.5 mph - N/A   Overcast
6:55 PM 64.4 °F 60.8 °F 88% 29.95 in 10.0 mi SSE 3.5 mph - N/A   Overcast
7:15 PM 62.6 °F 60.8 °F 94% 29.94 in 10.0 mi SSE 5.8 mph - N/A   Overcast
7:35 PM 62.6 °F 60.8 °F 94% 29.94 in 10.0 mi SSE 9.2 mph - N/A   Overcast
7:55 PM 62.6 °F 60.8 °F 94% 29.93 in 10.0 mi SSE 8.1 mph - N/A   Overcast
8:15 PM 62.6 °F 60.8 °F 94% 29.93 in 10.0 mi South 4.6 mph - N/A   Mostly Cloudy
8:35 PM 62.6 °F 60.8 °F 94% 29.93 in 10.0 mi SSE 5.8 mph - N/A   Mostly Cloudy
8:55 PM 64.4 °F 60.8 °F 88% 29.93 in 10.0 mi South 8.1 mph - N/A   Overcast
9:15 PM 64.4 °F 59.0 °F 83% 29.93 in 10.0 mi South 9.2 mph - N/A   Overcast
9:35 PM 64.4 °F 59.0 °F 83% 29.92 in 10.0 mi South 10.4 mph - N/A   Overcast
9:55 PM 64.4 °F 59.0 °F 83% 29.93 in 10.0 mi SSW 9.2 mph - N/A   Mostly Cloudy
10:15 PM 62.6 °F 59.0 °F 88% 29.93 in 10.0 mi SSW 9.2 mph - N/A   Scattered Clouds
10:35 PM 62.6 °F 59.0 °F 88% 29.93 in 10.0 mi SSW 6.9 mph - N/A   Scattered Clouds
10:55 PM 62.6 °F 59.0 °F 88% 29.93 in 10.0 mi SSW 8.1 mph - N/A   Clear
11:15 PM 62.6 °F 57.2 °F 82% 29.93 in 10.0 mi SSW 6.9 mph - N/A   Mostly Cloudy
11:55 PM 64.4 °F 55.4 °F 73% 29.93 in 10.0 mi SSW 8.1 mph - N/A   Overcast